Location: Unspecified
(0.0000°N, 0.0000°E)
Time: 09:45:32
(UTC+01:00)

Amateur Radio Satellites - All Passes

Search period start: 11 February 2016 09:15
Search period end: 12 February 2016 09:15
Location: Unspecified, 0.0000°N, 0.0000°E

Satellite Date Start Highest point End Downlink Frequencies (MHz)
Time Altitude Azimuth
JUGNU 11 Feb 09:17:04 09:18:32 11° 353° (N) 09:19:59 437.505
PRISM 11 Feb 09:20:44 09:23:51 21° 258° (WSW) 09:26:58 437.425
PCSat 11 Feb 09:33:24 09:38:12 32° 109° (ESE) 09:42:58 145.827
Cosmos 2499 11 Feb 09:34:56 09:42:14 35° 92° (E) 09:49:51 435.465 / 435.565
CANX-2 11 Feb 09:42:35 09:45:35 19° 282° (WNW) 09:48:36 2200.000
ZACube-1 11 Feb 09:49:01 09:53:03 37° 102° (ESE) 09:57:12 437.345
PHONESAT 2.4 11 Feb 09:56:48 09:59:57 49° 223° (SW) 10:03:06 2401.200-2431.200
FUNcube-1 11 Feb 09:57:17 10:01:28 47° 102° (ESE) 10:05:46 145.935
AIST 1 11 Feb 10:00:58 10:01:53 11° 94° (E) 10:02:47
RS-15 11 Feb 10:01:36 10:11:22 39° 111° (ESE) 10:21:15 29.354- 29.394
DELFI C3 11 Feb 10:16:01 10:19:59 58° 101° (ESE) 10:23:58 145.870
COMPASS 1 11 Feb 10:21:47 10:23:39 13° 282° (WNW) 10:25:31 437.405
HO-68 11 Feb 10:23:09 10:27:32 17° 285° (WNW) 10:31:57 435.675
AO-85 11 Feb 10:26:31 10:30:13 21° 294° (WNW) 10:34:07 145.980
Oscar 11 11 Feb 10:28:37 10:32:41 40° 282° (WNW) 10:36:46 145.826/435.025
UWE-3 11 Feb 10:34:09 10:37:56 29° 281° (W) 10:41:50 435.000/436.395/437.385
UNISAT 6 11 Feb 10:34:09 10:38:01 29° 79° (E) 10:41:47 437.425
CUBEBUG 2 11 Feb 10:36:47 10:39:50 19° 281° (W) 10:42:57 437.445
SRMSAT 11 Feb 10:54:14 10:56:28 12° 351° (N) 10:58:42 437.500
POPSAT HIP 1 11 Feb 11:04:35 11:05:37 11° 78° (ENE) 11:06:40 437.405
GONETS M04 11 Feb 11:05:17 11:10:10 16° 273° (W) 11:15:05
NANOSAT C BR1 11 Feb 11:07:52 11:09:29 12° 78° (ENE) 11:11:07 145.865
DUCHIFAT 1 11 Feb 11:08:53 11:10:21 12° 78° (ENE) 11:11:47 145.980
QB50P1 11 Feb 11:15:22 11:18:08 17° 78° (ENE) 11:20:52 145.935-145.965
PCSat 11 Feb 11:18:02 11:21:19 16° 290° (WNW) 11:24:37 145.827
ANTELSAT 11 Feb 11:18:34 11:23:00 62° 258° (WSW) 11:27:17 437.575/2403.000
TIGRISAT 11 Feb 11:25:02 11:29:25 53° 258° (WSW) 11:33:39 435.000
Cosmos 2499 11 Feb 11:28:08 11:34:59 29° 274° (W) 11:42:12 435.465 / 435.565
HUMSAT D 11 Feb 11:32:58 11:36:43 31° 281° (W) 11:40:31 437.325/437.525
AIST 1 11 Feb 11:35:27 11:39:11 28° 274° (W) 11:42:56
VELOX 1 11 Feb 11:41:28 11:45:27 34° 102° (ESE) 11:49:26 145.980
50 SAT 11 Feb 11:47:44 11:51:30 60° 101° (ESE) 11:55:17 437.505
AISAT 11 Feb 11:58:00 12:02:20 66° 102° (ESE) 12:06:41 437.250
BUGSAT 1 11 Feb 12:02:26 12:06:14 32° 78° (ENE) 12:10:01 437.445
UKube-1 11 Feb 12:03:31 12:07:46 67° 102° (ESE) 12:12:03 .
POLYITAN 1 11 Feb 12:06:57 12:11:14 79° 260° (W) 12:15:27 437.675
QB50P2 11 Feb 12:07:32 12:11:48 74° 258° (WSW) 12:16:02 145.880/145.840
SPROUT 11 Feb 12:11:44 12:14:44 19° 102° (ESE) 12:17:44 437.525
UNISAT 6 11 Feb 12:12:53 12:14:26 12° 257° (WSW) 12:15:58 437.425
RS-15 11 Feb 12:13:44 12:23:14 36° 292° (WNW) 12:33:04 29.354- 29.394
CUBEBUG 1 11 Feb 12:13:49 12:18:08 84° 100° (E) 12:22:27 437.445
DX 1 11 Feb 12:17:56 12:22:11 59° 282° (WNW) 12:26:27 434.975-435.025
ESTCUBE 1 11 Feb 12:25:19 12:29:37 45° 282° (WNW) 12:33:56 437.505/2401.250
POPSAT HIP 1 11 Feb 12:37:28 12:41:10 29° 258° (WSW) 12:44:50 437.405
ISS 11 Feb 12:38:08 12:39:37 12° 126° (SE) 12:41:05 145.825
NANOSAT C BR1 11 Feb 12:41:25 12:44:59 26° 258° (WSW) 12:48:31 145.865
DUCHIFAT 1 11 Feb 12:42:12 12:45:47 27° 258° (WSW) 12:49:22 145.980
QB50P1 11 Feb 12:50:37 12:53:39 19° 258° (WSW) 12:56:40 145.935-145.965
JUGNU 11 Feb 12:55:04 12:58:44 17° 14° (NNE) 13:02:23 437.505
JAS-2 11 Feb 13:00:47 13:04:46 15° 77° (ENE) 13:08:41 435.910
Oscar 19 11 Feb 13:36:19 13:41:04 36° 78° (ENE) 13:45:47 437.125/150
BEESAT 11 Feb 13:41:52 13:42:40 10° 103° (ESE) 13:43:27 436.000
SPROUT 11 Feb 13:47:42 13:50:27 17° 282° (WNW) 13:53:13 437.525
TISAT 1 11 Feb 13:49:58 13:54:01 54° 281° (WNW) 13:58:06 437.305
DANDE 11 Feb 13:58:11 14:01:37 21° 79° (ENE) 14:04:26 436.750
Cosmos 2491 11 Feb 14:02:25 14:03:54 10° 93° (E) 14:05:23 435.465 / 435.565
ISS 11 Feb 14:13:27 14:15:52 19° 306° (NW) 14:18:16 145.825
Gurwin Techsat 1B 11 Feb 14:18:50 14:23:35 33° 77° (ENE) 14:28:18 435.225
YUBILEINY 11 Feb 14:20:38 14:25:32 16° 87° (E) 14:30:24 435.215
SWISSCUBE 11 Feb 14:30:24 14:35:07 59° 103° (ESE) 14:39:50 437.505
SRMSAT 11 Feb 14:33:54 14:37:03 15° 12° (NNE) 14:40:13 437.500
JAS-2 11 Feb 14:41:36 14:49:24 68° 257° (WSW) 14:57:02 435.910
JUGNU 11 Feb 14:42:45 14:48:09 39° 20° (NNE) 14:53:33 437.505
ITAMSAT 1 11 Feb 14:48:29 14:53:04 32° 77° (ENE) 14:57:39 435.822/435.867
CUSAT 1 11 Feb 14:56:01 14:57:26 12° 270° (W) 14:58:45 437.405
ITUPSAT 1 11 Feb 15:08:03 15:12:42 50° 282° (WNW) 15:17:22 437.325
BEESAT 11 Feb 15:15:44 15:20:09 39° 282° (WNW) 15:24:37 436.000
Oscar 19 11 Feb 15:17:35 15:20:06 14° 257° (WSW) 15:22:36 437.125/150
BEESAT 3 11 Feb 15:41:54 15:45:25 30° 112° (ESE) 15:48:55 437.485
Cosmos 2491 11 Feb 15:51:38 16:00:23 78° 273° (W) 16:09:04 435.465 / 435.565
SO-50 11 Feb 15:57:48 16:02:20 82° 68° (ENE) 16:06:45 436.795
Gurwin Techsat 1B 11 Feb 16:00:12 16:03:14 15° 257° (WSW) 16:06:16 435.225
BEESAT 2 11 Feb 16:08:36 16:12:23 41° 112° (ESE) 16:16:10 435.950
AO-7 11 Feb 16:08:45 16:16:57 60° 74° (ENE) 16:25:07 29.400- 29.500
STARS 11 Feb 16:09:51 16:13:55 39° 102° (ESE) 16:18:01 437.465
YUBILEINY 11 Feb 16:13:22 16:21:57 59° 267° (W) 16:30:31 435.215
M-CUBED/EXP-1 PRIME 11 Feb 16:19:01 16:22:36 28° 76° (ENE) 16:25:56 437.505
SRMSAT 11 Feb 16:21:34 16:26:46 32° 19° (NNE) 16:32:01 437.500
AUBIESAT-1 11 Feb 16:27:26 16:31:00 29° 76° (ENE) 16:34:18 437.475
ITAMSAT 1 11 Feb 16:29:23 16:32:16 15° 257° (WSW) 16:35:09 435.822/435.867
KKS-1 11 Feb 16:30:52 16:35:02 43° 282° (WNW) 16:39:16 437.445
JUGNU 11 Feb 16:31:21 16:37:12 76° 202° (SSW) 16:43:04 437.505
HORYU 2 11 Feb 16:34:50 16:38:42 29° 78° (ENE) 16:42:31 437.375
MOZHAYETS 4 11 Feb 16:35:16 16:39:50 60° 102° (ESE) 16:44:25
Cosmos 2504 11 Feb 16:50:08 16:57:25 40° 86° (E) 17:04:15 435.465 / 435.565
CUBESAT XI-V 11 Feb 17:22:52 17:24:53 13° 102° (ESE) 17:26:54 437.345
M-CUBED/EXP-1 PRIME 11 Feb 17:56:32 17:56:51 10° 252° (WSW) 17:57:10 437.505
AO-7 11 Feb 18:04:12 18:09:18 18° 253° (WSW) 18:14:25 29.400- 29.500
SRMSAT 11 Feb 18:10:05 18:16:04 85° 22° (NNE) 18:22:05 437.500
HORYU 2 11 Feb 18:13:24 18:14:59 12° 257° (WSW) 18:16:33 437.375
AIST 2 11 Feb 18:16:02 18:20:08 58° 292° (WNW) 18:24:13 435.215
CUTE-I 11 Feb 18:17:25 18:21:48 26° 77° (ENE) 18:26:09 437.470
JUGNU 11 Feb 18:21:22 18:26:21 28° 198° (SSW) 18:31:22 437.505
BRITE-PL 11 Feb 18:28:00 18:31:46 19° 78° (ENE) 18:35:35 437.365/2234.400
Cubesat XI-IV 11 Feb 18:31:08 18:36:02 39° 77° (ENE) 18:40:56 437.490
O/OREOS (USA 219) 11 Feb 18:37:54 18:40:31 15° 75° (ENE) 18:43:08 437.305
STRAND 1 11 Feb 18:43:16 18:44:36 11° 103° (ESE) 18:45:56 437.568
Cosmos 2504 11 Feb 18:44:43 18:50:20 21° 268° (W) 18:55:44 435.465 / 435.565
LilacSat-2 11 Feb 18:51:15 18:55:03 60° 79° (E) 18:58:50 437.200
CUBESAT XI-V 11 Feb 18:57:57 19:02:00 30° 282° (WNW) 19:06:02 437.345
GOMX 1 11 Feb 19:24:09 19:29:14 38° 78° (ENE) 19:34:14 467.674
GONETS M04 11 Feb 19:48:36 19:50:52 11° 87° (E) 19:53:08
PRISM 11 Feb 19:49:21 19:51:51 16° 102° (ESE) 19:54:19 437.425
CUTE-I 11 Feb 19:57:48 20:01:34 20° 257° (WSW) 20:05:20 437.470
SRMSAT 11 Feb 19:59:55 20:05:20 36° 199° (SSW) 20:10:48 437.500
BRITE-PL 11 Feb 20:04:57 20:09:55 33° 259° (WSW) 20:14:59 437.365/2234.400
JUGNU 11 Feb 20:13:07 20:15:59 14° 191° (S) 20:18:52 437.505
Cubesat XI-IV 11 Feb 20:13:25 20:15:50 13° 257° (WSW) 20:18:14 437.490
CANX-2 11 Feb 20:13:26 20:16:37 21° 79° (ENE) 20:19:47 2200.000
O/OREOS (USA 219) 11 Feb 20:15:58 20:19:38 24° 256° (WSW) 20:23:20 437.305
STRAND 1 11 Feb 20:18:37 20:23:28 43° 283° (WNW) 20:28:21 437.568
HO-68 11 Feb 20:25:07 20:31:46 42° 75° (ENE) 20:38:24 435.675
DOVE 4 11 Feb 20:34:26 20:39:42 65° 258° (WSW) 20:44:50 437.250
COMPASS 1 11 Feb 20:49:16 20:52:47 27° 79° (ENE) 20:56:18 437.405
AO-85 11 Feb 20:59:51 21:03:57 37° 67° (ENE) 21:07:45 145.980
CUTE 1.7 + AOD 2 11 Feb 21:02:41 21:06:53 80° 257° (WSW) 21:11:04 437.475
GOMX 1 11 Feb 21:03:57 21:06:59 15° 258° (WSW) 21:10:00 467.674
Oscar 11 11 Feb 21:04:42 21:05:38 11° 78° (ENE) 21:06:34 145.826/435.025
SEEDS 11 Feb 21:05:58 21:10:07 77° 80° (E) 21:14:16 437.485
UWE-3 11 Feb 21:10:37 21:13:25 17° 79° (E) 21:16:09 435.000/436.395/437.385
CUBEBUG 2 11 Feb 21:12:34 21:16:26 28° 79° (E) 21:20:10 437.445
AAUSAT CUBESAT 2 11 Feb 21:15:42 21:19:43 53° 79° (E) 21:23:44 437.432
CINEMA 3 11 Feb 21:16:31 21:21:24 66° 258° (WSW) 21:26:04 145.822/145.860
PRISM 11 Feb 21:24:00 21:26:55 19° 282° (WNW) 21:29:50 437.425
PHONESAT 2.4 11 Feb 21:29:21 21:32:38 79° 317° (NW) 21:35:54 2401.200-2431.200
GONETS M04 11 Feb 21:38:28 21:47:16 76° 267° (W) 21:56:08
RS-15 11 Feb 21:43:06 21:53:50 35° 68° (ENE) 22:04:18 29.354- 29.394
Cosmos 2499 11 Feb 21:45:56 21:53:04 42° 86° (E) 21:59:47 435.465 / 435.565
CANX-2 11 Feb 21:49:55 21:52:13 14° 258° (WSW) 21:54:30 2200.000
SRMSAT 11 Feb 21:51:25 21:55:02 16° 193° (SSW) 21:58:40 437.500
ZACube-1 11 Feb 21:59:09 22:03:24 53° 79° (E) 22:07:31 437.345
HUMSAT D 11 Feb 22:05:16 22:06:31 11° 78° (ENE) 22:07:44 437.325/437.525
TIGRISAT 11 Feb 22:05:31 22:05:47 10° 103° (ESE) 22:06:03 435.000
AIST 1 11 Feb 22:06:09 22:08:32 15° 86° (E) 22:10:54
FUNcube-1 11 Feb 22:07:11 22:11:30 66° 78° (ENE) 22:15:41 145.935
PCSat 11 Feb 22:08:58 22:14:22 80° 250° (WSW) 22:19:45 145.827
HO-68 11 Feb 22:14:03 22:19:08 21° 255° (WSW) 22:24:15 435.675
DELFI C3 11 Feb 22:15:30 22:19:24 56° 78° (ENE) 22:23:16 145.870
COMPASS 1 11 Feb 22:27:23 22:28:06 10° 258° (WSW) 22:28:48 437.405
Oscar 11 11 Feb 22:37:46 22:41:30 29° 258° (WSW) 22:45:14 145.826/435.025
UWE-3 11 Feb 22:46:21 22:49:38 20° 258° (WSW) 22:52:50 435.000/436.395/437.385
UNISAT 6 11 Feb 22:46:42 22:50:59 45° 102° (ESE) 22:55:24 437.425
CUBEBUG 2 11 Feb 22:50:49 22:52:45 13° 257° (WSW) 22:54:40 437.445
ESTCUBE 1 11 Feb 23:05:21 23:07:16 12° 78° (ENE) 23:09:10 437.505/2401.250
POPSAT HIP 1 11 Feb 23:09:50 23:11:50 13° 102° (ESE) 23:13:51 437.405
NANOSAT C BR1 11 Feb 23:13:03 23:15:20 14° 102° (ESE) 23:17:38 145.865
DUCHIFAT 1 11 Feb 23:13:46 23:15:55 14° 102° (ESE) 23:18:04 145.980
QB50P1 11 Feb 23:21:10 23:24:17 20° 102° (ESE) 23:27:24 145.935-145.965
ANTELSAT 11 Feb 23:31:43 23:35:56 41° 281° (WNW) 23:40:16 437.575/2403.000
TIGRISAT 11 Feb 23:38:04 23:42:08 35° 282° (WNW) 23:46:21 435.000
HUMSAT D 11 Feb 23:38:29 23:41:54 25° 258° (WSW) 23:45:17 437.325/437.525
50 SAT 11 Feb 23:40:40 23:44:12 43° 79° (ENE) 23:47:42 437.505
Cosmos 2499 11 Feb 23:40:51 23:45:43 18° 268° (W) 23:50:27 435.465 / 435.565
AIST 1 11 Feb 23:42:47 23:45:51 19° 266° (W) 23:48:54
SRMSAT 11 Feb 23:44:36 23:45:16 10° 183° (S) 23:45:56 437.500
VELOX 1 11 Feb 23:52:54 23:57:15 52° 78° (ENE) 00:01:35 145.980
JUGNU 11 Feb 23:53:35 23:56:18 13° 170° (S) 23:59:00 437.505
RS-15 11 Feb 23:54:28 00:05:52 45° 250° (WSW) 00:17:05 29.354- 29.394
BUGSAT 1 12 Feb 00:05:43 00:09:20 34° 102° (ESE) 00:13:00 437.445
AISAT 12 Feb 00:09:46 00:14:15 83° 257° (WSW) 00:18:44 437.250
UKube-1 12 Feb 00:12:08 00:16:30 89° 51° (NE) 00:20:49 .
POLYITAN 1 12 Feb 00:13:25 00:17:34 62° 282° (WNW) 00:21:47 437.675
QB50P2 12 Feb 00:14:00 00:18:09 59° 282° (WNW) 00:22:19 145.880/145.840
SPROUT 12 Feb 00:18:59 00:22:29 24° 78° (ENE) 00:25:58 437.525
CUBEBUG 1 12 Feb 00:23:56 00:28:21 69° 258° (WSW) 00:32:45 437.445
DX 1 12 Feb 00:27:46 00:31:56 43° 258° (WSW) 00:36:05 434.975-435.025
ESTCUBE 1 12 Feb 00:39:55 00:43:48 29° 258° (WSW) 00:47:41 437.505/2401.250
POPSAT HIP 1 12 Feb 00:44:00 00:47:22 23° 281° (WNW) 00:50:45 437.405
NANOSAT C BR1 12 Feb 00:47:38 00:50:49 21° 282° (WNW) 00:54:02 145.865
DUCHIFAT 1 12 Feb 00:48:07 00:51:22 22° 282° (WNW) 00:54:39 145.980
QB50P1 12 Feb 00:57:20 00:59:48 15° 282° (WNW) 01:02:17 145.935-145.965
SRMSAT 12 Feb 01:33:32 01:35:40 12° 172° (S) 01:37:47 437.500
JUGNU 12 Feb 01:41:02 01:46:00 27° 162° (SSE) 01:50:59 437.505
CUSAT 1 12 Feb 01:46:22 01:53:07 68° 94° (E) 02:01:02 437.405
ISS 12 Feb 01:46:33 01:49:28 31° 234° (SW) 01:52:24 145.825
ITUPSAT 1 12 Feb 01:54:36 01:57:30 16° 77° (ENE) 02:00:23 437.325
TISAT 1 12 Feb 01:55:31 01:59:35 44° 258° (WSW) 02:03:37 437.305
SPROUT 12 Feb 01:56:06 01:58:12 13° 258° (WSW) 02:00:17 437.525
BEESAT 12 Feb 02:01:07 02:04:37 21° 78° (ENE) 02:08:07 436.000
Oscar 19 12 Feb 02:09:33 02:14:40 86° 282° (WNW) 02:19:49 437.125/150
JAS-2 12 Feb 02:16:23 02:21:30 66° 103° (ESE) 02:26:47 435.910
Cosmos 2491 12 Feb 02:30:39 02:37:31 26° 87° (E) 02:44:23 435.465 / 435.565
DANDE 12 Feb 02:36:53 02:43:04 82° 275° (W) 02:50:53 436.750
YUBILEINY 12 Feb 02:51:20 02:59:00 34° 93° (E) 03:06:38 435.215
SWISSCUBE 12 Feb 02:52:26 02:57:11 70° 258° (WSW) 03:01:54 437.505
Gurwin Techsat 1B 12 Feb 02:56:41 03:02:00 84° 282° (WNW) 03:07:20 435.225
KKS-1 12 Feb 03:09:37 03:11:22 12° 78° (ENE) 03:13:07 437.445
SRMSAT 12 Feb 03:21:05 03:25:41 22° 164° (SSE) 03:30:15 437.500
ITAMSAT 1 12 Feb 03:22:49 03:28:02 88° 103° (ESE) 03:33:17 435.822/435.867
JUGNU 12 Feb 03:29:15 03:35:14 69° 158° (SSE) 03:41:12 437.505
ITUPSAT 1 12 Feb 03:31:10 03:35:04 25° 257° (WSW) 03:38:58 437.325
CUSAT 1 12 Feb 03:32:18 03:35:31 13° 279° (W) 03:38:54 437.405
BEESAT 3 12 Feb 03:34:56 03:38:25 31° 68° (ENE) 03:41:54 437.485
BEESAT 12 Feb 03:38:42 03:42:09 20° 257° (WSW) 03:45:36 436.000
BEESAT 2 12 Feb 04:02:40 04:06:25 44° 68° (ENE) 04:10:11 435.950
SO-50 12 Feb 04:10:06 04:14:42 54° 292° (WNW) 04:19:25 436.795
M-CUBED/EXP-1 PRIME 12 Feb 04:18:38 04:21:59 27° 107° (ESE) 04:25:33 437.505
STARS 12 Feb 04:20:40 04:25:01 58° 78° (ENE) 04:29:21 437.465
Cosmos 2491 12 Feb 04:25:56 04:33:56 40° 267° (W) 04:42:02 435.465 / 435.565
AUBIESAT-1 12 Feb 04:26:32 04:29:55 28° 107° (ESE) 04:33:33 437.475
AO-7 12 Feb 04:34:59 04:43:17 88° 285° (WNW) 04:51:36 29.400- 29.500
KKS-1 12 Feb 04:43:47 04:47:40 29° 258° (WSW) 04:51:32 437.445
HORYU 2 12 Feb 04:46:52 04:51:07 44° 102° (ESE) 04:55:24 437.375
YUBILEINY 12 Feb 04:48:05 04:55:22 30° 273° (W) 05:02:43 435.215
MOZHAYETS 4 12 Feb 04:52:04 04:56:38 80° 259° (WSW) 05:01:10
Cosmos 2504 12 Feb 04:59:43 05:07:32 54° 92° (E) 05:15:49 435.465 / 435.565
SRMSAT 12 Feb 05:09:17 05:15:08 55° 159° (SSE) 05:20:58 437.500
JUGNU 12 Feb 05:18:38 05:24:19 43° 340° (NNW) 05:29:58 437.505
CUBESAT XI-V 12 Feb 05:39:34 05:43:12 23° 78° (ENE) 05:46:50 437.345
M-CUBED/EXP-1 PRIME 12 Feb 05:55:52 05:56:26 10° 283° (WNW) 05:57:02 437.505
AUBIESAT-1 12 Feb 06:03:50 06:04:19 10° 284° (WNW) 06:04:48 437.475
AIST 2 12 Feb 06:14:39 06:18:33 45° 248° (WSW) 06:22:28 435.215
LilacSat-2 12 Feb 06:45:57 06:49:36 48° 101° (E) 06:53:18 437.200
O/OREOS (USA 219) 12 Feb 06:47:55 06:51:33 24° 105° (ESE) 06:55:10 437.305
BRITE-PL 12 Feb 06:54:58 06:58:35 28° 101° (ESE) 07:02:07 437.365/2234.400
Cosmos 2504 12 Feb 06:55:39 07:00:40 18° 275° (W) 07:05:52 435.465 / 435.565
CUTE-I 12 Feb 06:55:45 07:01:07 79° 103° (ESE) 07:06:30 437.470
SRMSAT 12 Feb 06:58:32 07:04:21 54° 339° (NNW) 07:10:09 437.500
JUGNU 12 Feb 07:09:40 07:13:43 19° 345° (NNW) 07:17:46 437.505
Cubesat XI-IV 12 Feb 07:10:12 07:15:33 71° 283° (WNW) 07:20:55 437.490
STRAND 1 12 Feb 07:12:53 07:17:13 28° 77° (ENE) 07:21:31 437.568
CUBESAT XI-V 12 Feb 07:17:16 07:20:18 17° 258° (WSW) 07:23:23 437.345
GOMX 1 12 Feb 07:48:31 07:52:37 68° 101° (E) 07:56:48 467.674
PRISM 12 Feb 07:52:08 07:54:53 17° 78° (ENE) 07:57:37 437.425
HO-68 12 Feb 08:16:57 08:23:20 35° 105° (ESE) 08:29:41 435.675
GONETS M04 12 Feb 08:17:44 08:24:35 26° 93° (E) 08:31:21
CANX-2 12 Feb 08:19:31 08:23:08 27° 102° (ESE) 08:26:45 2200.000
O/OREOS (USA 219) 12 Feb 08:28:31 08:30:41 13° 285° (WNW) 08:32:50 437.305
SRMSAT 12 Feb 08:49:20 08:53:48 22° 344° (NNW) 08:58:15 437.500
STRAND 1 12 Feb 08:52:53 08:56:06 17° 257° (WSW) 08:59:20 437.568
COMPASS 1 12 Feb 08:53:23 08:57:09 32° 101° (ESE) 09:00:56 437.405
DOVE 4 12 Feb 08:56:20 08:59:56 29° 281° (W) 09:03:38 437.250
PHONESAT 2.4 12 Feb 09:02:01 09:05:14 65° 44° (NE) 09:08:26 2401.200-2431.200
JUGNU 12 Feb 09:02:38 09:03:40 10° 354° (N) 09:04:41 437.505
PCSat 12 Feb 09:03:25 09:07:25 21° 110° (ESE) 09:11:25 145.827
